カタログに戻る

SJ-4

運用中科学HEO
NORAD 22996·PAYLOAD·🇨🇳 China

打ち上げ Feb 8, 1994 から Xichang Satellite Launch Center

Loading…

次のパス (今後24時間)

TLE

最新Source: Space-Track

元期: Sep 12, 2026, 01:11 UTC

1 22996U 94010A   26255.04975833  .00000267  00000-0  21064-3 0  9992
2 22996  29.0002 167.0398 5550594  57.5435 344.4351  4.64226801451466

AllMySatでSJ-4をリアルタイム追跡

Download on the App Store